Location: Arthez
(43.0833°N, 0.2500°W)
Time: 15:13:47
(UTC+00:00)

NOSS 3-1 (A) - Pass Details

Date: 16 December 2023
Orbit: 665 x 1546 km, 63.4° (Epoch: 18 February)

Event Time Altitude Azimuth Distance (km) Brightness Sun altitude
Exits shadow 05:28:27 11° 343° (NNW) 2,674 5.5 -20.6°
Maximum altitude 05:30:34 12° 3° (N) 2,655 5.7 -20.2°
Drops below altitude 10° 05:33:18 10° 26° (NNE) 2,962 6.2 -19.7°
Sets 05:38:28 0° 54° (NE) 4,162 7.4 -18.8°
